Location: Home
(42.5358°N, 72.7383°W)
Time: 05:46:56
(UTC-05:00)

Explorer 11/Cluster Stage 4 - Pass Details

Date: 06 December 2021
Orbit: 467 x 1255 km, 28.8° (Epoch: 25 January)

Event Time Altitude Azimuth Distance (km) Brightness Sun altitude
Rises 03:03:19 0° 246° (WSW) 3,480 - -43.9°
Reaches altitude 10° 03:06:09 10° 234° (SW) 2,673 - -43.4°
Maximum altitude 03:11:27 26° 180° (S) 1,969 - -42.4°
Exits shadow 03:14:47 19° 144° (SE) 2,407 9.2 -41.8°
Drops below altitude 10° 03:17:29 10° 128° (SE) 3,080 10.0 -41.3°
Sets 03:21:01 0° 117° (ESE) 4,121 10.9 -40.7°
